FW6806 Weather Reports


Display with metric or nautical units.
time (UTC)temp
F
wind
direction
speed
MPH
gust
MPH
rain 1hr
in
rain 24hr
in
rain mn
in
humidity
%
barometer
mb
20260505003057 67 69 3.0 8.0 0.00 0.00 0.00 49 1008.1
20260505001558 68 63 2.0 5.0 0.00 0.00 0.00 49 1008.0
20260505000114 68 84 2.0 6.0 0.00 0.00 0.00 50 1007.9
20260504234555 69 73 6.0 10.0 0.00 0.00 0.00 47 1007.7
20260504233106 70 119 5.0 9.0 0.00 0.00 0.00 45 1007.7
20260504231550 70 82 6.0 13.0 0.00 0.00 0.00 43 1007.8
20260504230049 71 88 6.0 12.0 0.00 0.00 0.00 43 1007.8
20260504224556 71 122 6.0 13.0 0.00 0.00 0.00 40 1007.7
20260504223109 72 95 4.0 14.0 0.00 0.00 0.00 41 1007.7
20260504221544 72 67 6.0 13.0 0.00 0.00 0.00 40 1007.9
20260504220043 72 114 5.0 15.0 0.00 0.00 0.00 37 1008.0
20260504214542 72 84 7.0 11.0 0.00 0.00 0.00 39 1008.1
20260504213051 72 84 7.0 13.0 0.00 0.00 0.00 40 1007.9
20260504211538 72 80 6.0 14.0 0.00 0.00 0.00 38 1008.0
20260504210040 72 57 5.0 10.0 0.00 0.00 0.00 38 1008.0
20260504204543 72 69 6.0 17.0 0.00 0.00 0.00 36 1008.2
20260504203038 72 156 8.0 20.0 0.00 0.00 0.00 35 1008.3
20260504201531 72 142 8.0 21.0 0.00 0.00 0.00 36 1008.6
20260504200031 72 117 8.0 17.0 0.00 0.00 0.00 36 1008.7
20260504194527 71 77 7.0 18.0 0.00 0.00 0.00 38 1008.9
20260504193025 71 56 5.0 17.0 0.00 0.00 0.00 38 1008.9
20260504191521 71 65 5.0 15.0 0.00 0.00 0.00 38 1009.3
20260504190017 70 61 10.0 17.0 0.00 0.00 0.00 38 1009.3
20260504184517 70 9 7.0 16.0 0.00 0.00 0.00 37 1009.4
20260504183011 70 75 6.0 18.0 0.00 0.00 0.00 37 1009.7
20260504181513 70 118 7.0 16.0 0.00 0.00 0.00 36 1009.9
20260504180008 69 135 10.0 19.0 0.00 0.00 0.00 36 1010.2
20260504174504 70 141 10.0 14.0 0.00 0.00 0.00 35 1010.4
20260504173102 69 117 7.0 18.0 0.00 0.00 0.00 36 1010.6
20260504171556 69 87 5.0 15.0 0.00 0.00 0.00 37 1010.6
20260504081523 48 360 4.0 9.0 0.00 0.00 0.00 71 1013.1
20260504044533 52 360 2.0 5.0 0.00 0.00 0.00 49 1012.7
20260504043024 52 360 2.0 5.0 0.00 0.00 0.00 48 1012.5
20260504041548 52 360 2.0 5.0 0.00 0.00 0.00 48 1012.3
20260504040103 52 360 3.0 5.0 0.00 0.00 0.00 48 1012.3
20260504034608 53 360 3.0 6.0 0.00 0.00 0.00 47 1012.2
20260504033043 52 360 2.0 6.0 0.00 0.00 0.00 47 1012.1
20260504031545 52 360 2.0 5.0 0.00 0.00 0.00 47 1012.1
20260504024538 53 360 1.0 5.0 0.00 0.00 0.00 46 1012.2
20260504023037 53 360 3.0 6.0 0.00 0.00 0.00 46 1012.2
20260504021536 53 360 3.0 6.0 0.00 0.00 0.00 46 1012.2
20260504020036 53 360 2.0 5.0 0.00 0.00 0.00 46 1012.1
20260504014535 53 360 1.0 4.0 0.00 0.00 0.00 46 1012.1
20260504013045 54 360 2.0 4.0 0.00 0.00 0.00 45 1011.8
20260504011533 54 360 2.0 4.0 0.00 0.00 0.00 44 1011.7
20260504010032 55 360 2.0 4.0 0.00 0.00 0.00 43 1011.5
20260504004530 55 360 2.0 4.0 0.00 0.00 0.00 43 1011.2